| time (UTC) | temp F | wind direction | speed MPH | gust MPH | rain 1hr in | rain 24hr in | rain mn in | humidity % | barometer mb |
| 20260504173012 | 52 | 162 | 1.0 | 5.0 | 0.00 | 0.00 | 0.00 | 53 | 1006.6 |
| 20260504171510 | 52 | 84 | 1.0 | 4.0 | 0.00 | 0.00 | 0.00 | 53 | 1006.8 |
| 20260504120125 | 31 | 115 | 0.0 | 2.0 | 0.00 | 0.00 | 0.00 | 76 | 1008.3 |
| 20260504081505 | 30 | 229 | 0.0 | 0.0 | 0.00 | 0.00 | 0.00 | 72 | 1008.9 |
| 20260504044543 | 38 | 226 | 0.0 | 0.0 | 0.00 | 0.00 | 0.00 | 58 | 1009.9 |
| 20260504043046 | 39 | 226 | 0.0 | 2.0 | 0.00 | 0.00 | 0.00 | 57 | 1010.1 |
| 20260504041542 | 40 | 226 | 1.0 | 2.0 | 0.00 | 0.00 | 0.00 | 56 | 1010.1 |
| 20260504040042 | 41 | 226 | 0.0 | 2.0 | 0.00 | 0.00 | 0.00 | 54 | 1010.2 |
| 20260504034541 | 42 | 226 | 1.0 | 3.0 | 0.00 | 0.00 | 0.00 | 53 | 1010.3 |
| 20260504033040 | 43 | 226 | 0.0 | 2.0 | 0.00 | 0.00 | 0.00 | 48 | 1010.3 |
| 20260504031541 | 44 | 192 | 2.0 | 4.0 | 0.00 | 0.00 | 0.00 | 43 | 1010.1 |
| 20260504030040 | 46 | 194 | 1.0 | 5.0 | 0.00 | 0.00 | 0.00 | 37 | 1010.0 |
| 20260504024543 | 46 | 178 | 1.0 | 3.0 | 0.00 | 0.00 | 0.00 | 40 | 1009.9 |
| 20260504023040 | 47 | 178 | 1.0 | 4.0 | 0.00 | 0.00 | 0.00 | 35 | 1009.8 |
| 20260504021538 | 47 | 146 | 1.0 | 5.0 | 0.00 | 0.00 | 0.00 | 41 | 1009.7 |
| 20260504020104 | 49 | 155 | 1.0 | 3.0 | 0.00 | 0.00 | 0.00 | 40 | 1009.8 |
| 20260504014553 | 52 | 155 | 1.0 | 3.0 | 0.00 | 0.00 | 0.00 | 32 | 1009.7 |
| 20260504013045 | 55 | 80 | 0.0 | 4.0 | 0.00 | 0.00 | 0.00 | 26 | 1009.7 |
| 20260504011537 | 56 | 355 | 1.0 | 5.0 | 0.00 | 0.00 | 0.00 | 26 | 1009.6 |
| 20260504010042 | 57 | 28 | 2.0 | 5.0 | 0.00 | 0.00 | 0.00 | 25 | 1009.7 |
| 20260504004546 | 57 | 12 | 1.0 | 4.0 | 0.00 | 0.00 | 0.00 | 24 | 1009.7 |
| 20260504003033 | 57 | 309 | 1.0 | 4.0 | 0.00 | 0.00 | 0.00 | 27 | 1009.8 |
| 20260504001543 | 57 | 331 | 2.0 | 7.0 | 0.00 | 0.00 | 0.00 | 26 | 1010.0 |
| 20260504000032 | 58 | 22 | 2.0 | 8.0 | 0.00 | 0.00 | 0.00 | 26 | 1010.0 |
| 20260503234532 | 58 | 230 | 2.0 | 5.0 | 0.00 | 0.00 | 0.00 | 27 | 1009.9 |
| 20260503233035 | 59 | 327 | 1.0 | 6.0 | 0.00 | 0.00 | 0.00 | 25 | 1010.1 |
| 20260503231529 | 60 | 222 | 2.0 | 8.0 | 0.00 | 0.00 | 0.00 | 25 | 1010.1 |
| 20260503230028 | 60 | 5 | 3.0 | 10.0 | 0.00 | 0.00 | 0.00 | 24 | 1010.3 |
| 20260503224528 | 60 | 101 | 2.0 | 8.0 | 0.00 | 0.00 | 0.00 | 24 | 1010.4 |
| 20260503223026 | 58 | 9 | 1.0 | 3.0 | 0.00 | 0.00 | 0.00 | 27 | 1010.6 |
| 20260503221524 | 58 | 251 | 2.0 | 7.0 | 0.00 | 0.00 | 0.00 | 28 | 1010.9 |
| 20260503220023 | 58 | 9 | 2.0 | 5.0 | 0.00 | 0.00 | 0.00 | 26 | 1011.0 |
| 20260503214522 | 58 | 9 | 1.0 | 3.0 | 0.00 | 0.00 | 0.00 | 27 | 1011.3 |
| 20260503213020 | 59 | 130 | 1.0 | 5.0 | 0.00 | 0.00 | 0.00 | 26 | 1011.4 |
| 20260503211518 | 61 | 30 | 2.0 | 9.0 | 0.00 | 0.00 | 0.00 | 23 | 1011.6 |
| 20260503210015 | 60 | 111 | 3.0 | 8.0 | 0.00 | 0.00 | 0.00 | 24 | 1011.9 |
| 20260503204513 | 59 | 87 | 1.0 | 6.0 | 0.00 | 0.00 | 0.00 | 26 | 1012.0 |
| 20260503203032 | 60 | 247 | 2.0 | 8.0 | 0.00 | 0.00 | 0.00 | 26 | 1012.1 |
| 20260503201511 | 60 | 80 | 4.0 | 18.0 | 0.00 | 0.00 | 0.00 | 26 | 1012.1 |
| 20260503200012 | 60 | 259 | 2.0 | 11.0 | 0.00 | 0.00 | 0.00 | 28 | 1012.2 |
| 20260503194514 | 60 | 338 | 3.0 | 10.0 | 0.00 | 0.00 | 0.00 | 28 | 1012.4 |
| 20260503193007 | 60 | 105 | 3.0 | 9.0 | 0.00 | 0.00 | 0.00 | 28 | 1012.4 |
| 20260503191504 | 60 | 115 | 2.0 | 6.0 | 0.00 | 0.00 | 0.00 | 29 | 1012.4 |
| 20260503190004 | 60 | 40 | 3.0 | 9.0 | 0.00 | 0.00 | 0.00 | 29 | 1012.8 |
| 20260503184605 | 60 | 54 | 3.0 | 9.0 | 0.00 | 0.00 | 0.00 | 30 | 1012.8 |
| 20260503183059 | 60 | 126 | 3.0 | 8.0 | 0.00 | 0.00 | 0.00 | 29 | 1013.2 |
| 20260503181600 | 59 | 107 | 2.0 | 9.0 | 0.00 | 0.00 | 0.00 | 27 | 1013.6 |
| 20260503180055 | 58 | 304 | 1.0 | 8.0 | 0.00 | 0.00 | 0.00 | 31 | 1013.7 |
| 20260503174550 | 59 | 341 | 3.0 | 6.0 | 0.00 | 0.00 | 0.00 | 29 | 1013.7 |